Regional Weather Roundup
Issued by NWS Sterling, VA

Home | Current Version | Previous Version | Text Only | Print | Product List | Glossary Off
Versions: 1 2 3 4 5 6 7 8 9 10 11 12 13 14 15 16 17 18 19 20 21 22 23 24 25 26 27 28 29 30 31 32 33 34 35 36 37 38 39 40 41 42 43 44 45 46 47 48 49 50

000
ASUS41 KLWX 211310
RWRLWX

REGIONAL WEATHER ROUNDUP
NATIONAL WEATHER SERVICE BALTIMORE MD/WASHINGTON DC
900 AM EDT THU MAY 21 2015

Note: "FAIR" indicates few or no clouds below 12,000 feet
with no significant weather and/or obstructions to visibility.
 TC=TEMPERATURE CELSIUS

 * =Non NWS site. Station does not report precipitation (e.g. rain,
    snow, etc.), thunder, or fog.

DCZ001-MDZ009-015-VAZ040>042-051-053>054-211400-
WASHINGTON METRO

CITY           SKY/WX    TMP DP  RH WIND       PRES   REMARKS
WASHINGTON NAT LGT RAIN  60  49  66 E8        30.00R
DULLES         RAIN      55  49  80 CALM      30.00R
ANDREWS AFB    CLOUDY    55  50  82 E3        29.99S
FT BELVOIR     LGT RAIN  56  50  81 SE7       30.00R
QUANTICO       LGT RAIN  56  49  77 SE12      30.01S
COLLEGE PARK*  CLOUDY    55  48  76 NE3       30.00R
LEESBURG*      LGT RAIN  54  52  94 CALM      30.01R
MANASSAS*      RAIN      55  54  94 CALM      30.00R FOG
GAITHERSBURG*  CLOUDY    54  46  76 CALM      30.04R

$$

MDZ006>007-011-014-211400-
BALTIMORE METRO

CITY           SKY/WX    TMP DP  RH WIND       PRES   REMARKS
BWI AIRPORT    LGT RAIN  57  41  55 E10       30.00R
MD SCIENCE CTR   N/A     57  39  51 MISG      30.02R
MARTIN STATE   LGT RAIN  57  41  54 E3        30.03R
ANNAPOLIS      LGT RAIN  58  41  53 E9        30.00R
FORT MEADE*    CLOUDY    54  41  62 E6        30.03S

$$

MDZ012-015-019>023-211400-
MARYLAND EASTERN SHORE

CITY           SKY/WX    TMP DP  RH WIND       PRES   REMARKS
OCEAN CITY     CLOUDY    59  47  64 SE10      30.00R
SALISBURY      LGT RAIN  56  48  74 E5        30.00R
BAY BRIDGE AP* LGT RAIN N/A N/A N/A E7        30.01R
CAMBRIDGE*     CLOUDY    55  45  67 E5        29.99S
EASTON*        CLOUDY    55  46  71 SE5       30.05R

$$

MDZ017>025-211400-
SOUTHERN MARYLAND

CITY           SKY/WX    TMP DP  RH WIND       PRES   REMARKS
PATUXENT RIVER LGT RAIN  57  50  77 E14       29.97F
ST INIGOES     LGT RAIN  58  52  80 E7        29.97S
LEONARDTOWN*   CLOUDY    54  46  76 NE5       30.00R

$$

MDZ003>005-211400-
NORTH CENTRAL MARYLAND

CITY           SKY/WX    TMP DP  RH WIND       PRES   REMARKS
FREDERICK*     CLOUDY    54  52  94 NE6       30.04
HAGERSTOWN APT CLOUDY    53  46  77 N7        30.01S
WESTMINSTER*   DRIZZLE   52  45  76 E6        30.01F

$$

MDZ501>502-211400-
WESTERN MARYLAND

CITY           SKY/WX    TMP DP  RH WIND       PRES   REMARKS
OAKLAND*       CLOUDY    41 N/A N/A E5        29.97S HAZE
CUMBERLAND*    CLOUDY    52  46  82 N3        30.05R

$$

VAZ025>031-211400-
SHENANDOAH VALLEY

CITY           SKY/WX    TMP DP  RH WIND       PRES   REMARKS
WINCHESTER*    RAIN      54  45  71 CALM      30.00R
FRONT ROYAL*   CLOUDY    50  48  93 CALM      29.99R
LURAY*         DRIZZLE   54  54 100 CALM      29.99R
NEW MARKET*    CLOUDY    49  47  93 N3        29.99R
STAUNTON*      CLOUDY    55  49  80 N5        29.99S
WAYNESBORO*    CLOUDY    53  45  75 SE5       29.98R

$$

WVZ021-048>050-054>055-211400-
EASTERN WEST VIRGINIA PANHANDLE

CITY           SKY/WX    TMP DP  RH WIND       PRES   REMARKS
MARTINSBURG    LGT RAIN  53  48  83 N6        30.01R
PETERSBURG*    RAIN      49  44  84 NW3       30.01R

$$

VAZ036>039-050-211400-
CENTRAL FOOTHILLS

CITY           SKY/WX    TMP DP  RH WIND       PRES   REMARKS
CHARLOTTESVILL CLOUDY    55  47  74 NE6       29.98R
CULPEPER*      RAIN      53  51  94 CALM      30.01R
ORANGE*        RAIN      55  52  88 N3        29.99F
GORDONSVILLE*  CLOUDY    54  49  85 NE5       29.98R
WARRENTON*     RAIN      54  52  94 NE5       30.00R

$$

VAZ055>057-211400-
NORTH AND CENTRAL PIEDMONT

CITY           SKY/WX    TMP DP  RH WIND       PRES   REMARKS
FREDERICKSBRG* CLOUDY    57  51  81 CALM      29.99S
STAFFORD*      CLOUDY    54  50  86 NE5       30.04R

$$

NCZ024-NYZ072-PAZ021-071-VAZ022-071-211400-
OTHER REGIONAL OBSERVATIONS

CITY           SKY/WX    TMP DP  RH WIND       PRES   REMARKS
NEW YORK CITY  CLOUDY    57  36  45 CALM      30.04F
PHILADELPHIA   LGT RAIN  56  38  50 E6        30.02S
PITTSBURGH     CLOUDY    47  41  80 E7        29.98F
ROANOKE        LGT RAIN  57  49  74 SE7       29.96
RICHMOND       LGT RAIN  58  54  86 NE6       29.96R
RALEIGH        CLOUDY    64  57  78 E3        29.89R

$$

ANZ530>537-211400-
MARINE OBSERVATIONS

STATION/POSITION TIME  TEMP    WIND        PRES
                       AIR SEA DIR/SP/G
                 (UTC) (F)     (DEG/KT/KT) (MB)
THOMAS PT LIGHT  1300   57 67  100/ 12/ 14 1016.3R
BALT KEY BRIDGE  1200   58      80/ 12/ 13 1015.5S
COVE POINT       1200   56     100/ 12/ 13 1016.1F
LEWISETTA        1200   62 72              1014.8R
PINEY POINT      1200          130/ 14/ 16   N/A

$$



USA.gov is the U.S. government's official web portal to all federal, state and local government web resources and services.